FW7253 Weather Reports


time (UTC)temp
F
wind
direction
speed
knots
gust
knots
rain 1hr
in
rain 24hr
in
rain mn
in
humidity
%
barometer
mb
20260901224550 54 0 0.0 2.6 0.00 0.00 0.00 94 1008.1
20260901224031 54 0 0.0 2.6 0.00 0.00 0.00 94 1008.1
20260901223534 54 98 0.9 2.6 0.00 0.00 0.00 93 1008.2
20260901223055 54 0 0.9 1.7 0.00 0.00 0.00 93 1008.2
20260901222536 54 0 0.0 0.0 0.00 0.00 0.00 93 1008.2
20260901222036 54 0 0.0 0.0 0.00 0.00 0.00 93 1008.2
20260901221607 55 0 0.0 0.0 0.00 0.00 0.00 93 1008.1
20260901221033 55 0 0.0 0.9 0.00 0.00 0.00 93 1008.2
20260901220532 55 0 0.0 1.7 0.00 0.00 0.00 93 1008.2
20260901220048 55 0 0.0 1.7 0.00 0.00 0.00 93 1008.2
20260901215535 55 104 0.9 1.7 0.00 0.00 0.00 93 1008.1
20260901215031 55 110 0.9 1.7 0.00 0.00 0.00 93 1008.1
20260901214546 55 112 0.9 1.7 0.00 0.00 0.00 93 1008.2
20260901214033 55 106 0.0 2.6 0.00 0.00 0.00 93 1008.1
20260901213537 56 140 0.0 2.6 0.00 0.00 0.00 93 1008.1
20260901213056 56 143 0.0 1.7 0.00 0.00 0.00 93 1008.0
20260901212533 56 117 0.0 1.7 0.00 0.00 0.00 93 1008.0
20260901212032 56 160 0.0 1.7 0.00 0.00 0.00 93 1008.1
20260901211551 55 0 0.0 1.7 0.00 0.00 0.00 93 1008.1
20260901211032 55 138 0.0 1.7 0.00 0.00 0.00 93 1008.2
20260901210534 56 141 0.0 3.5 0.00 0.00 0.00 93 1008.1
20260901210047 56 0 0.0 3.5 0.00 0.00 0.00 93 1008.2
20260901205532 55 123 1.7 2.6 0.00 0.00 0.00 92 1008.3
20260901205034 55 111 1.7 2.6 0.00 0.00 0.00 92 1008.3
20260901204544 56 124 1.7 2.6 0.00 0.00 0.00 92 1008.3
20260901204030 56 116 0.9 2.6 0.00 0.00 0.00 92 1008.5
20260901203533 56 105 0.9 2.6 0.00 0.00 0.00 92 1008.4
20260901203056 56 0 0.0 0.0 0.00 0.00 0.00 92 1008.5
20260901202533 56 0 0.0 0.0 0.00 0.00 0.00 91 1008.4
20260901202033 56 0 0.0 0.0 0.00 0.00 0.00 91 1008.6
20260901201550 56 0 0.0 0.0 0.00 0.00 0.00 91 1008.4
20260901201037 56 0 0.0 0.0 0.00 0.00 0.00 91 1008.4
20260901200530 56 0 0.0 0.0 0.00 0.00 0.00 91 1008.4
20260901200045 56 0 0.0 0.0 0.00 0.00 0.00 91 1008.5
20260901195530 57 0 0.0 0.0 0.00 0.00 0.00 91 1008.5
20260901195031 57 0 0.0 0.9 0.00 0.00 0.00 90 1008.5
20260901194544 57 0 0.0 1.7 0.00 0.00 0.00 90 1008.3
20260901194034 57 0 0.0 1.7 0.00 0.00 0.00 90 1008.6
20260901193533 57 168 0.0 0.9 0.00 0.00 0.00 90 1008.5
20260901193047 57 0 0.0 1.7 0.00 0.00 0.00 90 1008.6
20260901192537 57 0 0.0 2.6 0.00 0.00 0.00 90 1008.5
20260901192030 57 174 0.0 2.6 0.00 0.00 0.00 90 1008.4
20260901191545 57 168 0.9 2.6 0.00 0.00 0.00 89 1008.5
20260901191033 57 221 0.9 1.7 0.00 0.00 0.00 89 1008.5
20260901190533 58 210 0.0 1.7 0.00 0.00 0.00 89 1008.5
20260901190049 58 0 0.0 1.7 0.00 0.00 0.00 88 1008.6
20260901185634 58 0 0.0 3.5 0.00 0.00 0.00 88 1008.5
20260901185033 59 0 0.0 3.5 0.00 0.00 0.00 88 1008.6
20260901184545 59 127 1.7 3.5 0.00 0.00 0.00 88 1008.5
20260901184033 59 141 0.9 3.5 0.00 0.00 0.00 88 1008.5
20260901183533 59 206 1.7 5.2 0.00 0.00 0.00 88 1008.5
20260901183109 59 195 0.9 5.2 0.00 0.00 0.00 87 1008.5
20260901182533 59 153 1.7 4.3 0.00 0.00 0.00 87 1008.6
20260901182034 60 184 0.9 3.5 0.00 0.00 0.00 87 1008.6
20260901181552 60 0 0.9 3.5 0.00 0.00 0.00 86 1008.5
20260901181034 60 151 0.9 3.5 0.00 0.00 0.00 86 1008.6
20260901180533 60 158 1.7 3.5 0.00 0.00 0.00 86 1008.7
20260901180050 61 148 1.7 3.5 0.00 0.00 0.00 85 1008.6
20260901175533 61 128 0.9 6.1 0.00 0.00 0.00 85 1008.6
20260901175032 61 0 2.6 6.1 0.00 0.00 0.00 84 1008.5
20260901174547 61 110 1.7 6.1 0.00 0.00 0.00 83 1008.5
20260901174033 62 156 1.7 5.2 0.00 0.00 0.00 83 1008.7
20260901173532 62 207 0.9 5.2 0.00 0.00 0.00 82 1008.7
20260901173124 63 163 2.6 7.0 0.00 0.00 0.00 81 1008.7
20260901172533 63 205 2.6 7.8 0.00 0.00 0.00 80 1008.7
20260901172033 64 219 2.6 7.8 0.00 0.00 0.00 79 1008.7
20260901171556 64 221 3.5 11.3 0.00 0.00 0.00 79 1008.7
20260901171034 64 212 6.1 11.3 0.00 0.00 0.00 78 1008.8
20260901170533 64 179 6.1 11.3 0.00 0.00 0.00 78 1008.8
20260901165532 64 115 2.6 6.1 0.00 0.00 0.00 79 1008.7
20260901165032 63 207 3.5 6.1 0.00 0.00 0.00 80 1008.7
20260901164557 63 148 1.7 5.2 0.00 0.00 0.00 80 1008.7
20260901164032 63 108 1.7 6.1 0.00 0.00 0.00 80 1008.8
20260901163532 64 179 3.5 8.7 0.00 0.00 0.00 79 1008.8
20260901163108 64 160 3.5 8.7 0.00 0.00 0.00 79 1008.9
20260901162532 64 140 3.5 7.0 0.00 0.00 0.00 79 1008.9
20260901162035 64 183 2.6 6.1 0.00 0.00 0.00 78 1008.9
20260901161557 64 205 0.9 6.1 0.00 0.00 0.00 78 1008.8
20260901161031 64 213 1.7 6.1 0.00 0.00 0.00 78 1008.8
20260901160532 64 181 2.6 7.8 0.00 0.00 0.00 78 1008.7
20260901160056 64 158 2.6 7.8 0.00 0.00 0.00 78 1008.7
20260901155532 64 191 3.5 7.8 0.00 0.00 0.00 78 1008.6
20260901155032 65 171 1.7 5.2 0.00 0.00 0.00 77 1008.7
20260901154548 65 190 1.7 5.2 0.00 0.00 0.00 77 1008.7
20260901154032 65 65 0.9 5.2 0.00 0.00 0.00 76 1008.8
20260901153533 65 153 1.7 4.3 0.00 0.00 0.00 76 1008.8
20260901153046 66 141 1.7 6.1 0.00 0.00 0.00 75 1008.9
20260901152538 66 191 1.7 6.1 0.00 0.00 0.00 74 1008.9
20260901152033 66 184 2.6 7.0 0.00 0.00 0.00 73 1008.9
20260901151558 67 102 2.6 10.4 0.00 0.00 0.00 73 1008.9
20260901151031 67 185 2.6 10.4 0.00 0.00 0.00 72 1008.9
20260901150532 67 155 2.6 7.0 0.00 0.00 0.00 74 1008.9
20260901150055 67 98 2.6 7.0 0.00 0.00 0.00 73 1008.8
20260901145533 67 131 1.7 6.1 0.00 0.00 0.00 72 1008.9
20260901145031 68 135 3.5 6.1 0.00 0.00 0.00 70 1009.0
20260901144547 68 134 2.6 6.1 0.00 0.00 0.00 72 1009.0
20260901144034 68 181 2.6 5.2 0.00 0.00 0.00 72 1009.0
20260901143532 68 146 2.6 4.3 0.00 0.00 0.00 71 1008.9
20260901143049 68 178 1.7 4.3 0.00 0.00 0.00 72 1008.9
20260901142533 68 147 2.6 5.2 0.00 0.00 0.00 72 1009.0
20260901142033 68 95 2.6 5.2 0.00 0.00 0.00 70 1009.1
20260901141552 68 141 1.7 3.5 0.00 0.00 0.00 71 1009.1
20260901141030 67 90 1.7 5.2 0.00 0.00 0.00 73 1009.1
20260901140532 67 99 2.6 5.2 0.00 0.00 0.00 71 1009.2
20260901140047 67 94 3.5 5.2 0.00 0.00 0.00 70 1009.3
20260901135532 67 143 1.7 4.3 0.00 0.00 0.00 72 1009.3
20260901135033 66 109 1.7 4.3 0.00 0.00 0.00 73 1009.3
20260901134547 67 0 1.7 4.3 0.00 0.00 0.00 73 1009.5
20260901134031 67 124 2.6 4.3 0.00 0.00 0.00 73 1009.4
20260901133536 67 100 1.7 5.2 0.00 0.00 0.00 73 1009.4
20260901133057 66 156 1.7 5.2 0.00 0.00 0.00 74 1009.5
20260901132531 66 157 1.7 5.2 0.00 0.00 0.00 73 1009.4
20260901132031 66 113 0.9 2.6 0.00 0.00 0.00 73 1009.5
20260901131548 66 158 0.9 2.6 0.00 0.00 0.00 72 1009.6
20260901131035 67 148 0.9 3.5 0.00 0.00 0.00 71 1009.7
20260901130532 68 181 1.7 3.5 0.00 0.00 0.00 71 1009.7
20260901130048 68 233 0.9 3.5 0.00 0.00 0.00 70 1009.8
20260901125531 68 0 1.7 6.1 0.00 0.00 0.00 69 1009.8
20260901125032 67 137 1.7 6.1 0.00 0.00 0.00 72 1009.8
20260901124547 67 119 1.7 5.2 0.00 0.00 0.00 73 1009.8
20260901124033 67 173 2.6 5.2 0.00 0.00 0.00 72 1009.8
20260901123531 67 0 1.7 5.2 0.00 0.00 0.00 71 1009.9
20260901123053 67 107 2.6 5.2 0.00 0.00 0.00 73 1009.8
20260901122531 66 163 0.0 4.3 0.00 0.00 0.00 73 1009.9
20260901122031 66 199 1.7 4.3 0.00 0.00 0.00 74 1009.9
20260901121553 66 98 1.7 3.5 0.00 0.00 0.00 73 1009.9
20260901121035 66 292 0.9 3.5 0.00 0.00 0.00 74 1009.9
20260901120531 65 201 1.7 4.3 0.00 0.00 0.00 75 1009.9
20260901120059 64 212 0.9 4.3 0.00 0.00 0.00 78 1009.9
20260901115531 63 134 1.7 3.5 0.00 0.00 0.00 77 1010.0
20260901115035 64 139 1.7 3.5 0.00 0.00 0.00 77 1009.9
20260901114544 62 357 1.7 3.5 0.00 0.00 0.00 80 1009.9
20260901114031 62 115 0.9 4.3 0.00 0.00 0.00 80 1010.1
20260901113533 62 214 1.7 4.3 0.00 0.00 0.00 79 1010.0
20260901113051 62 233 1.7 4.3 0.00 0.00 0.00 79 1010.0
20260901112533 62 219 0.9 5.2 0.00 0.00 0.00 80 1010.0
20260901112036 62 208 2.6 5.2 0.00 0.00 0.00 81 1010.0
20260901111554 62 0 0.9 3.5 0.00 0.00 0.00 79 1010.0
20260901111031 63 101 1.7 3.5 0.00 0.00 0.00 80 1010.1
20260901110531 62 0 1.7 3.5 0.00 0.00 0.00 80 1010.1
20260901110048 62 136 1.7 4.3 0.00 0.00 0.00 81 1010.2
20260901105532 61 0 0.0 4.3 0.00 0.00 0.00 81 1010.2
20260901105035 61 233 1.7 4.3 0.00 0.00 0.00 82 1010.3
20260901104553 61 113 0.9 2.6 0.00 0.00 0.00 82 1010.2
20260901104036 61 148 0.0 2.6 0.00 0.00 0.00 83 1010.1
20260901103533 61 124 0.9 3.5 0.00 0.00 0.00 83 1010.0
20260901103055 60 0 0.9 4.3 0.00 0.00 0.00 82 1010.1
20260901102532 61 228 1.7 4.3 0.00 0.00 0.00 82 1010.0
20260901102032 61 223 1.7 4.3 0.00 0.00 0.00 82 1009.9
20260901101606 61 134 0.9 4.3 0.00 0.00 0.00 83 1010.0
20260901101035 61 122 2.6 5.2 0.00 0.00 0.00 83 1010.0
20260901100531 60 220 1.7 5.2 0.00 0.00 0.00 83 1009.9
20260901100105 60 221 1.7 5.2 0.00 0.00 0.00 84 1009.8
20260901095533 59 327 1.7 3.5 0.00 0.00 0.00 85 1009.9
20260901095031 59 320 1.7 3.5 0.00 0.00 0.00 85 1009.9
20260901094549 59 318 0.0 2.6 0.00 0.00 0.00 86 1010.0
20260901094032 59 0 0.9 2.6 0.00 0.00 0.00 86 1010.0
20260901093531 59 239 1.7 2.6 0.00 0.00 0.00 86 1010.0
20260901093049 59 211 0.0 4.3 0.00 0.00 0.00 88 1010.0
20260901092536 58 232 1.7 4.3 0.00 0.00 0.00 88 1009.9
20260901092036 58 222 2.6 3.5 0.00 0.00 0.00 90 1010.0
20260901091547 58 0 0.9 2.6 0.00 0.00 0.00 91 1010.0
20260901091034 58 345 0.9 2.6 0.00 0.00 0.00 93 1009.9
20260901090535 58 314 0.9 2.6 0.00 0.00 0.00 94 1009.9
20260901090101 58 311 0.9 2.6 0.00 0.00 0.00 95 1009.9
20260901085532 57 0 0.0 2.6 0.00 0.00 0.00 95 1009.9
20260901085033 57 0 0.0 2.6 0.00 0.00 0.00 95 1009.9
20260901084559 57 353 0.9 2.6 0.00 0.00 0.00 96 1009.8
20260901084035 57 323 0.9 2.6 0.00 0.00 0.00 96 1009.9
20260901083537 57 318 0.9 1.7 0.00 0.00 0.00 96 1009.9
20260901083058 57 325 0.0 1.7 0.00 0.00 0.00 96 1009.8
20260901082534 57 0 0.0 2.6 0.00 0.00 0.00 96 1009.9
20260901082036 56 345 0.9 2.6 0.00 0.00 0.00 96 1009.8
20260901081556 56 307 0.9 2.6 0.00 0.00 0.00 96 1010.0
20260901081037 56 319 0.9 2.6 0.00 0.00 0.00 96 1009.9
20260901080531 56 296 1.7 2.6 0.00 0.00 0.00 96 1009.8
20260901080108 55 0 0.0 0.0 0.00 0.00 0.00 96 1009.9
20260901075535 55 0 0.0 0.0 0.00 0.00 0.00 96 1009.8
20260901075035 55 0 0.0 0.0 0.00 0.00 0.00 96 1009.8
20260901074600 55 0 0.0 0.0 0.00 0.00 0.00 96 1009.8
20260901074039 54 0 0.0 0.0 0.00 0.00 0.00 96 1009.9
20260901073535 54 0 0.0 0.0 0.00 0.00 0.00 96 1009.8
20260901073051 54 0 0.0 0.0 0.00 0.00 0.00 96 1009.7
20260901072535 54 0 0.0 0.0 0.00 0.00 0.00 96 1009.8
20260901072032 54 0 0.0 1.7 0.00 0.00 0.00 96 1009.7
20260901071546 54 0 0.0 2.6 0.00 0.00 0.00 96 1009.7
20260901071031 53 304 0.9 2.6 0.00 0.00 0.00 96 1009.7
20260901070538 53 0 0.0 2.6 0.00 0.00 0.00 96 1009.7
20260901070052 53 0 0.0 3.5 0.00 0.00 0.00 96 1009.5
20260901065535 53 26 0.9 5.2 0.00 0.00 0.00 96 1009.5
20260901065035 53 356 2.6 6.1 0.00 0.00 0.00 96 1009.5
20260901064549 52 354 3.5 6.1 0.00 0.00 0.00 96 1009.5
20260901064035 52 343 3.5 6.1 0.00 0.00 0.00 96 1009.5
20260901063534 53 347 3.5 6.1 0.00 0.00 0.00 96 1009.5
20260901063053 52 345 3.5 6.1 0.00 0.00 0.00 96 1009.5
20260901062531 52 336 2.6 5.2 0.00 0.00 0.00 96 1009.4
20260901062032 52 356 3.5 5.2 0.00 0.00 0.00 96 1009.4
20260901061548 52 340 3.5 6.1 0.00 0.00 0.00 96 1009.5
20260901061031 52 336 2.6 6.1 0.00 0.00 0.00 96 1009.4
20260901060532 52 6 3.5 6.1 0.00 0.00 0.00 96 1009.4
20260901060051 52 349 1.7 5.2 0.00 0.00 0.00 96 1009.3
20260901055531 52 341 2.6 5.2 0.00 0.00 0.00 96 1009.2
20260901055031 52 360 2.6 5.2 0.00 0.00 0.00 96 1009.2
20260901054546 52 359 3.5 5.2 0.00 0.00 0.00 96 1009.2
20260901054032 52 340 1.7 3.5 0.00 0.00 0.00 96 1009.2
20260901053534 52 345 2.6 3.5 0.00 0.00 0.00 96 1009.2
20260901053100 52 351 0.0 2.6 0.00 0.00 0.00 96 1009.1
20260901052533 51 313 0.0 2.6 0.00 0.00 0.00 96 1009.0
20260901052031 51 0 0.0 2.6 0.00 0.00 0.00 96 1009.0
20260901051551 51 352 0.0 1.7 0.00 0.00 0.00 96 1009.1
20260901051031 51 113 0.0 0.9 0.00 0.00 0.00 96 1008.9
20260901050531 51 0 0.0 1.7 0.00 0.00 0.00 96 1009.0
20260901050057 51 356 0.0 1.7 0.00 0.00 0.00 96 1009.0
20260901045531 51 359 0.0 1.7 0.00 0.00 0.00 96 1008.9
20260901045030 51 335 0.0 0.9 0.00 0.00 0.00 96 1009.0
20260901044552 50 0 0.0 0.9 0.00 0.00 0.00 96 1008.8
20260901044031 50 0 0.0 0.9 0.00 0.00 0.00 96 1008.8
20260901043532 50 0 0.0 1.7 0.00 0.00 0.00 96 1008.7
20260901043052 50 0 0.0 1.7 0.00 0.00 0.00 96 1008.6
20260901042532 50 0 0.0 2.6 0.00 0.00 0.00 96 1008.7
20260901042037 50 16 0.9 4.3 0.00 0.00 0.00 96 1008.6
20260901041613 50 79 0.9 4.3 0.00 0.00 0.00 96 1008.6
20260901041031 50 348 2.6 4.3 0.00 0.00 0.00 96 1008.6
20260901040535 49 17 0.0 2.6 0.00 0.00 0.00 96 1008.6
20260901040136 49 0 0.0 0.0 0.00 0.00 0.00 96 1008.6
20260901035536 49 0 0.0 0.0 0.00 0.00 0.00 96 1008.7
20260901035032 49 0 0.0 0.0 0.00 0.00 0.00 96 1008.7
20260901034550 49 0 0.0 0.0 0.00 0.00 0.00 96 1008.6
20260901034030 49 0 0.0 0.0 0.00 0.00 0.00 96 1008.7
20260901033533 48 0 0.0 0.0 0.00 0.00 0.00 96 1008.7
20260901033057 48 0 0.0 0.0 0.00 0.00 0.00 96 1008.5
20260901032531 48 0 0.0 0.0 0.00 0.00 0.00 96 1008.5
20260901032031 48 0 0.0 0.0 0.00 0.00 0.00 96 1008.6
20260901031551 48 0 0.0 0.0 0.00 0.00 0.00 96 1008.6
20260901031032 48 0 0.0 0.0 0.00 0.00 0.00 96 1008.5
20260901030533 47 0 0.0 0.0 0.00 0.00 0.00 96 1008.4
20260901030049 47 0 0.0 0.0 0.00 0.00 0.00 96 1008.4
20260901025531 47 0 0.0 0.0 0.00 0.00 0.00 96 1008.3
20260901025033 47 0 0.0 0.0 0.00 0.00 0.00 96 1008.3
20260901024549 47 0 0.0 0.0 0.00 0.00 0.00 96 1008.2
20260901024033 47 0 0.0 0.0 0.00 0.00 0.00 96 1008.2
20260901023530 47 0 0.0 0.0 0.00 0.00 0.00 96 1008.2
20260901023057 47 0 0.0 0.0 0.00 0.00 0.00 96 1008.1
20260901022531 47 0 0.0 0.0 0.00 0.00 0.00 96 1008.1
20260901022031 47 0 0.0 0.0 0.00 0.00 0.00 96 1008.1
20260901021551 47 0 0.0 0.0 0.00 0.00 0.00 96 1008.0
20260901021031 47 0 0.0 0.0 0.00 0.00 0.00 96 1007.9
20260901020532 47 0 0.0 0.0 0.00 0.00 0.00 96 1008.0
20260901020048 47 0 0.0 0.0 0.00 0.00 0.00 96 1008.0
20260901015530 47 0 0.0 0.0 0.00 0.00 0.00 96 1007.9
20260901015031 47 0 0.0 0.0 0.00 0.00 0.00 95 1007.8
20260901014555 47 0 0.0 0.0 0.00 0.00 0.00 95 1007.7
20260901014031 47 0 0.0 0.0 0.00 0.00 0.00 95 1007.8
20260901013530 47 0 0.0 0.0 0.00 0.00 0.00 95 1007.8
20260901013057 47 0 0.0 0.0 0.00 0.00 0.00 95 1007.8
20260901012531 47 0 0.0 0.0 0.00 0.00 0.00 95 1007.9
20260901012031 48 0 0.0 0.0 0.00 0.00 0.00 95 1007.7
20260901011547 48 0 0.0 0.0 0.00 0.00 0.00 95 1007.8
20260901011030 48 0 0.0 0.0 0.00 0.00 0.00 95 1007.7
20260901010534 48 0 0.0 0.0 0.00 0.00 0.00 95 1007.7
20260901010108 48 0 0.0 0.0 0.00 0.00 0.00 95 1007.7
20260901005530 48 0 0.0 0.0 0.00 0.00 0.00 95 1007.7
20260901005032 48 0 0.0 0.0 0.00 0.00 0.00 95 1007.7
20260901004550 48 0 0.0 0.0 0.00 0.00 0.00 95 1007.7
20260901004031 48 0 0.0 0.0 0.00 0.00 0.00 95 1007.7
20260901003531 48 0 0.0 0.0 0.00 0.00 0.00 95 1007.5
20260901003051 48 0 0.0 0.0 0.00 0.00 0.00 95 1007.7
20260901002531 49 0 0.0 0.0 0.00 0.00 0.00 95 1007.7
20260901002031 49 0 0.0 0.0 0.00 0.00 0.00 95 1007.6
20260901001547 49 0 0.0 0.0 0.00 0.00 0.00 95 1007.6
20260901001031 50 0 0.0 0.0 0.00 0.00 0.00 95 1007.7
20260901000534 50 0 0.0 0.0 0.00 0.00 0.00 95 1007.6
20260901000046 50 0 0.0 0.0 0.00 0.00 0.00 95 1007.7
20260831235534 50 0 0.0 0.0 0.00 0.00 0.00 95 1007.7
20260831235034 49 0 0.0 0.0 0.00 0.00 0.00 95 1007.7
20260831234553 49 0 0.0 0.0 0.00 0.00 0.00 95 1007.7
20260831234034 49 0 0.0 0.0 0.00 0.00 0.00 95 1007.7
20260831233539 49 0 0.0 0.0 0.00 0.00 0.00 95 1007.6
20260831233048 49 0 0.0 0.0 0.00 0.00 0.00 94 1007.7
20260831232534 50 0 0.0 0.0 0.00 0.00 0.00 95 1007.7
20260831232034 50 0 0.0 0.0 0.00 0.00 0.00 95 1007.6
20260831231545 50 0 0.0 0.0 0.00 0.00 0.00 95 1007.7
20260831231038 50 0 0.0 0.0 0.00 0.00 0.00 95 1007.8
20260831230534 50 0 0.0 0.0 0.00 0.00 0.00 94 1007.7
20260831230109 50 0 0.0 0.0 0.00 0.00 0.00 94 1007.8
20260831225535 51 0 0.0 0.0 0.00 0.00 0.00 94 1007.8
20260831225035 51 0 0.0 0.0 0.00 0.00 0.00 94 1007.7